Date,TemperatureHighF,TemperatureAvgF,TemperatureLowF,DewpointHighF,DewpointAvgF,DewpointLowF,HumidityHigh,HumidityAvg,HumidityLow,PressureMaxIn,PressureMinIn,WindSpeedMaxMPH,WindSpeedAvgMPH,GustSpeedMaxMPH,PrecipitationSumIn
2013-8-1,82.6,71.6,68.0,72.2,68.6,66.2,98,91,63,29.06,28.88,4,0,6,0.16
2013-8-2,87.6,73.3,64.8,67.4,63.4,57.3,97,74,37,29.03,28.91,4,0,7,0.05
2013-8-3,79.7,71.1,65.8,69.5,64.6,59.7,89,80,64,29.06,28.97,3,0,6,0.00
2013-8-4,82.8,71.0,62.4,63.8,57.1,49.9,90,65,35,29.09,28.97,5,1,8,0.00
2013-8-5,80.1,68.7,59.4,61.4,56.3,51.8,88,67,41,29.15,29.06,4,0,6,0.00
2013-8-6,79.2,70.4,65.5,68.5,65.1,60.9,96,84,64,29.09,29.03,2,0,4,0.50
2013-8-7,83.7,73.4,68.9,73.4,70.3,67.8,98,91,64,29.12,29.03,4,0,6,0.04
2013-8-8,79.9,73.9,69.3,74.6,71.5,68.7,98,92,79,29.12,29.00,3,0,4,0.04
2013-8-9,89.1,77.8,69.3,76.4,72.7,68.1,98,86,60,29.09,28.94,6,0,7,0.50
2013-8-10,80.4,74.3,70.9,74.8,71.2,69.4,97,90,74,29.15,29.00,2,0,4,1.33
2013-8-11,79.5,73.6,68.4,73.0,70.0,66.9,97,89,72,29.21,29.06,4,0,6,0.17
2013-8-12,87.3,75.4,68.4,73.5,70.0,65.1,98,85,54,29.12,28.94,3,0,4,0.00
2013-8-13,85.6,74.9,71.1,71.5,69.5,63.9,98,84,59,28.97,28.80,3,0,4,0.00
2013-8-14,77.0,67.5,59.0,64.3,51.1,42.9,78,57,36,29.18,28.88,4,1,7,0.00
2013-8-15,78.1,64.4,55.9,55.6,51.9,47.8,88,66,40,29.27,29.12,3,0,5,0.00
2013-8-16,76.1,65.0,56.3,59.6,54.6,51.3,92,71,44,29.30,29.18,3,0,5,0.00
2013-8-17,77.9,66.4,58.1,61.4,57.0,54.2,91,73,48,29.36,29.24,3,0,6,0.00
2013-8-18,67.6,65.0,62.4,65.1,62.9,59.8,96,93,80,29.36,29.24,1,0,2,1.24
2013-8-19,72.3,67.7,63.5,69.0,66.0,62.3,98,94,88,29.33,29.12,1,0,2,0.04
2013-8-20,82.6,72.2,64.4,72.3,67.9,63.8,98,87,65,29.30,29.15,3,0,5,0.00
2013-8-21,84.2,73.8,67.1,74.6,69.7,66.2,98,88,65,29.30,29.15,3,0,4,0.17
2013-8-22,83.8,72.5,66.4,70.9,67.3,63.1,98,85,56,29.18,29.03,2,0,4,0.04
2013-8-23,70.2,67.1,60.1,69.6,65.6,58.3,98,95,90,29.21,29.00,3,0,4,1.15
2013-8-24,79.7,66.2,57.7,65.1,58.7,55.7,98,79,48,29.39,29.18,3,0,6,0.00
2013-8-25,77.5,67.6,60.8,66.0,60.9,57.1,97,81,56,29.50,29.33,3,0,6,0.00
2013-8-26,81.3,69.2,59.0,67.4,62.4,57.3,98,81,49,29.39,29.09,3,0,6,0.00
2013-8-27,84.9,73.1,65.3,73.2,67.1,62.9,94,82,64,29.12,28.94,2,0,3,0.00
2013-8-28,75.6,72.1,70.7,72.4,70.0,67.0,98,93,84,29.03,28.85,4,0,5,0.00
2013-8-29,81.3,73.7,69.1,71.8,69.6,66.7,98,88,64,29.09,28.88,3,0,4,0.00
2013-8-30,82.8,72.8,65.7,71.4,68.5,64.8,98,87,64,29.12,28.94,4,0,6,0.14
2013-8-31,86.2,73.0,66.4,73.3,69.1,65.6,98,89,55,29.15,28.88,4,0,6,0.03